User: anonymous   Login
Location: Unspecified
(0.0000°N, 0.0000°E)
Time: 19:18:02
(UTC+00:00)
Language:

Explorer 11/Cluster Stage 4 - Orbit

View from above orbital plane
View from above orbital plane
View from above satellite
View from above satellite

Ground track
Ground track

The orbit data is extracted from the following two-line orbital elements,

1 00107U 61013A   14331.49924777  .00003185  00000-0  41947-3 0  1885
2 00107 028.7919 105.5243 0559275 283.5449 131.5019 14.05859239679563
Epoch (UTC): 27 November 2014 11:58:55
Eccentricity: 0.0559275
inclination: 28.7919°
perigee height: 468 km
apogee height: 1279 km
right ascension of ascending node: 105.5243°
argument of perigee: 283.5449°
revolutions per day: 14.05859239
mean anomaly at epoch: 131.5019°
orbit number at epoch: 67956

The dashed part of the orbit path shows where the satellite is in the earth's shadow,  

DLR